Location: Aranbee
(34.0885°N, 118.2342°W)
Time: 12:54:01
(UTC+00:00)

Tiros 1 - Pass Details

Date: 03 December 2020
Orbit: 630 x 663 km, 48.4° (Epoch: 21 January)

Event Time Altitude Azimuth Distance (km) Brightness Sun altitude
Rises 04:01:57 0° 307° (NW) 2,980 11.1 -40.5°
Enters shadow 04:03:34 - 307° (NW) 2,345 10.5 -40.8°
Reaches altitude 10° 04:04:18 10° 307° (NW) 2,061 - -41.0°
Maximum altitude 04:09:04 86° 219° (SW) 654 - -41.9°
Drops below altitude 10° 04:13:46 10° 131° (SE) 2,031 - -42.9°
Sets 04:16:04 0° 131° (SE) 2,932 - -43.4°
